Location: Newark
(42.6681°N, 4.0833°W)
Time: 21:15:54
(UTC+00:00)

ISS - Visible Passes

Search period start: 27 September 2020 00:00
Search period end: 07 October 2020 00:00
Orbit: 419 x 421 km, 51.6° (Epoch: 28 September)

Date Brightness Start Highest point End Pass type
(mag) Time Alt. Az. Time Alt. Az. Time Alt. Az.
27 Sep -1.5 18:59:33 10° NW 19:01:55 18° N 19:04:18 10° NE visible
27 Sep -0.9 20:36:39 10° NW 20:37:36 16° NNW 20:37:36 16° NNW visible
28 Sep -1.9 19:49:28 10° NW 19:52:08 22° NNE 19:52:08 22° NNE visible
29 Sep -1.7 19:02:13 10° NW 19:04:44 19° N 19:06:40 13° NE visible
29 Sep -0.7 20:38:51 10° NW 20:39:38 16° NW 20:39:38 16° NW visible
30 Sep -2.4 19:51:40 10° NW 19:54:11 31° N 19:54:11 31° N visible
01 Oct -2.3 19:04:29 10° NW 19:07:25 26° NNE 19:08:46 20° ENE visible
01 Oct -0.6 20:41:08 10° WNW 20:41:45 15° WNW 20:41:45 15° WNW visible
02 Oct -2.0 18:17:17 10° NW 18:19:59 22° NNE 18:22:41 10° ENE visible
02 Oct -2.8 19:53:50 10° NW 19:56:22 47° NW 19:56:22 47° NW visible
03 Oct -3.4 19:06:36 10° NW 19:09:54 49° NNE 19:11:03 33° E visible
03 Oct -0.3 20:43:49 10° W 20:44:02 11° W 20:44:02 11° W visible
04 Oct -2.8 18:19:24 10° NW 18:22:32 35° NNE 18:25:40 10° E visible
04 Oct -2.3 19:56:14 10° WNW 19:58:47 34° WSW 19:58:47 34° WSW visible
05 Oct -3.5 19:08:48 10° WNW 19:12:09 64° SW 19:13:38 29° SE visible
06 Oct -3.8 18:21:28 10° NW 18:24:52 79° NE 18:28:13 10° ESE visible
06 Oct -1.0 19:59:30 10° W 20:01:15 14° SW 20:01:37 13° SW visible
